IRIDIUM 914 (24836 NORAD) Tracking and Keplerian Element Data

This shows tracking and keplerian element data for the satellite.

Feedback or suggestion? Click here.




ElementValue
Catalog24836
NameIRIDIUM 914
Epoch Orbit58789
Epoch Day34.6094047
Epoch Year2025
RAAN238.8098
Inclination86.3902
Eccentricity0.0001075
Argument of Perigee33.1318
Mean Anonmoly326.9948
Mean Motion14.40636414
Decay Rate8.78E-06
L11 24836U 97030A 25034.60940470 .00000878 00000+0 26907-3 0 9995
L22 24836 86.3902 238.8098 0001075 33.1318 326.9948 14.40636414587894



Live tracking and technical data element details for IRIDIUM 914 (NORAD 24836). IRIDIUM 914 can be tracked NOW for your location showing map with azimuth and elevation plus other details from your city location.







IsCatalogInMostPopularTable: catalog: 24836, numindb: 415
Update: records affected: 1



GetName: 24836 IRIDIUM 914

Hit Count: updated at: Thu, 22 May 2025 04:17:14 GMT